Dauntless Aviation
Airports North America Canada
CYLW
YLW

Kelowna International Airport

Kelowna, BC, CANADA

Airport Info
Suggest Updated Information for this Airport

Location

Latitude / Longitude: 49°53'0"N / 119°29'35"W
  49°53.016'N / 119°29.598'W
  49.8836 / -119.4933

Nearby radio navigation aids

EX RUTLAND NDB. 335.5° 1.0nm from EX to field.
LW KELOWNA NDB. 147.1° 6.5nm from LW to field.

Runway Information

Runway 16 /34

Dimensions: 7300 x 200 ft.
Surface: ASP
 
Runway 16
Runway 34
Latitude: 49.966 49.946278
Longitude: -119.378961 -119.376461
Elevation: 1409 ft. 1409 ft.
Runway true heading: 166.6 346.6
 

Instrument Procedures

  Aerodrome Chart
  Parking Areas
  CAC: Aerodrome Chart
  CAC: Parking Areas - Apron I
  CAC: Parking Areas - Apron III

IAPs (Instrument Approach Procedures)

  CFS: KELOWNA VFR Terminal Procedures Chart
  CFS: KELOWNA VFR Terminal Procedures Chart - Night Circuit Procedure
  CFS: Aerodrome Information
  CFS: Aerodrome Information (Part 2)
  DATBO ONE ARR (DATBO.DATBO 1)
  LENUR ONE ARR (LENUR.LENUR 1)
  RNAV (GNSS) A
  NDB B (GNSS)
  ILS/DME 1 Rwy 16
  Night Circuit Procedures
  KELOWNA FIVE DEP (YLW 5.)

Departure Procedures

  Departure Procedure
Satellite photo at:
Airport distance calculator
From:
Weather Reports

METAR

CYLW

CYLW 191800Z AUTO 19003KT 9SM FEW023 OVC033 02/02 A2947 RMK SLP995
CWUS
20.0nm S
CWUS 191800Z AUTO 15007KT 03/01 RMK AO1 3010 SLP996 T00290008 50002
CWJV
23.3nm N
CWJV 191800Z AUTO 00000KT 01/01 RMK AO1 2PAST HR 3011 SLP991 P0001 T00140014 50035
CYYF
25.3nm S
CYYF 191800Z 17012KT 15SM SCT018 BKN040 BKN070 04/01 A2949 RMK SF3SC2AC2 SLP999

TAF

CYLW
TAF AMD CYLW 191711Z 1917/2001 VRB03KT P6SM SCT015 BKN030 TEMPO 1917/1919 4SM -RA BR FEW002 BKN015 OVC030 FM191900 VRB03KT P6SM SCT030 BKN050 TEMPO 1919/2001 6SM -SHRA BKN015 OVC030 RMK FCST BASED ON AUTO OBS. NXT FCST BY 191900Z
CYYF
25.3nm S
TAF CYYF 191238Z 1913/2001 17010KT P6SM -RA FEW006 SCT015 OVC070 TEMPO 1913/1919 3SM -RA BR BKN006 OVC015 FM191900 17012KT P6SM SCT020 BKN040 RMK NXT FCST BY 191900Z
Safelog

 

Dauntless Aviation

© 2007-2017 Dauntless Aviation, all rights reserved
Information provided via PilotNav comes from a variety of official and unofficial data sources. As errors are possible, do not use PilotNav for primary flight planning purposes. Verify any information that you receive via PilotNav with current and canonical charts and other official documents. The material in this database is subject to database copyrights held by Dauntless Aviation and may not be copied without the express permission of Dauntless Aviation - licenses for use of part of all of this data are available for purchase; enquire via the Dauntless Aviation helpdesk. A number of mechanisms and markers exist in the database to protect against and identify infringement / copyright. Automated queries against this website are stictly prohibited, and all activity is logged and analyzed.